• In Deutschland
  • Länderverzeichnis
  • Für 7 Tage
  • Wassertemperatur
  • Satellitenkarten
  • Wetterkarte
  • Widgets
  • user-avatar
    Anmelden

    Stündliche Wetter Melbourne

    Heute, 20 September, Donnerstag

    Zeit Temperatur Niederschläge Wind Luftdruck Luftfeuchtigkeit
    00:00 +6°C° 0 mm 1 m/S 762 mmHg 86%
    01:00 +6°C° 0 mm 1 m/S 763 mmHg 88%
    02:00 +5°C° 0 mm 2 m/S 763 mmHg 89%
    03:00 +4°C° 0 mm 2 m/S 763 mmHg 89%
    04:00 +4°C° 0 mm 2 m/S 763 mmHg 90%
    05:00 +5°C° 0 mm 2 m/S 763 mmHg 89%
    06:00 +5°C° 0 mm 2 m/S 763 mmHg 87%
    07:00 +5°C° 0 mm 2 m/S 764 mmHg 86%
    08:00 +8°C° 0 mm 2 m/S 764 mmHg 75%
    09:00 +12°C° 0 mm 2 m/S 764 mmHg 65%
    10:00 +14°C° 0 mm 2 m/S 764 mmHg 54%
    11:00 +15°C° 0 mm 2 m/S 764 mmHg 51%
    12:00 +16°C° 0 mm 2 m/S 764 mmHg 47%
    13:00 +17°C° 0 mm 2 m/S 764 mmHg 44%
    14:00 +17°C° 0 mm 2 m/S 764 mmHg 47%
    15:00 +17°C° 0 mm 3 m/S 764 mmHg 50%
    16:00 +17°C° 0 mm 3 m/S 764 mmHg 53%
    17:00 +15°C° 0 mm 2 m/S 765 mmHg 62%
    18:00 +13°C° 0 mm 2 m/S 765 mmHg 70%
    19:00 +12°C° 0 mm 2 m/S 765 mmHg 78%
    20:00 +10°C° 0 mm 2 m/S 766 mmHg 82%
    21:00 +10°C° 0 mm 2 m/S 767 mmHg 86%
    22:00 +9°C° 0 mm 2 m/S 767 mmHg 90%
    23:00 +8°C° 0 mm 2 m/S 767 mmHg 91%

    Morgen, 21 September, Freitag

    Zeit Temperatur Niederschläge Wind Luftdruck Luftfeuchtigkeit
    00:00 +8°C° 0 mm 2 m/S 767 mmHg 93%
    01:00 +7°C° 0 mm 2 m/S 768 mmHg 95%
    02:00 +7°C° 0 mm 2 m/S 768 mmHg 95%
    03:00 +7°C° 0 mm 2 m/S 768 mmHg 95%
    04:00 +7°C° 0 mm 2 m/S 768 mmHg 95%
    05:00 +7°C° 0 mm 2 m/S 768 mmHg 94%
    06:00 +7°C° 0 mm 2 m/S 769 mmHg 93%
    07:00 +8°C° 0 mm 2 m/S 769 mmHg 92%
    08:00 +10°C° 0 mm 2 m/S 769 mmHg 82%
    09:00 +14°C° 0 mm 2 m/S 769 mmHg 71%
    10:00 +16°C° 0 mm 2 m/S 769 mmHg 61%
    11:00 +17°C° 0 mm 2 m/S 769 mmHg 58%
    12:00 +19°C° 0 mm 2 m/S 768 mmHg 55%
    13:00 +20°C° 0 mm 2 m/S 768 mmHg 51%
    14:00 +20°C° 0 mm 2 m/S 768 mmHg 53%
    15:00 +20°C° 0 mm 3 m/S 768 mmHg 54%
    16:00 +20°C° 0 mm 3 m/S 767 mmHg 55%
    17:00 +18°C° 0 mm 2 m/S 768 mmHg 64%
    18:00 +16°C° 0 mm 2 m/S 768 mmHg 72%
    19:00 +14°C° 0 mm 2 m/S 768 mmHg 80%
    20:00 +13°C° 0 mm 2 m/S 769 mmHg 83%
    21:00 +13°C° 0 mm 1 m/S 769 mmHg 85%
    22:00 +12°C° 0 mm 1 m/S 769 mmHg 87%
    23:00 +12°C° 0 mm 1 m/S 769 mmHg 89%

    übermorgen, 22 September, Samstag

    Zeit Temperatur Niederschläge Wind Luftdruck Luftfeuchtigkeit
    00:00 +11°C° 0 mm 1 m/S 769 mmHg 91%
    01:00 +10°C° 0 mm 1 m/S 769 mmHg 92%
    02:00 +10°C° 0 mm 1 m/S 769 mmHg 92%
    03:00 +9°C° 0 mm 2 m/S 768 mmHg 93%
    04:00 +8°C° 0 mm 2 m/S 768 mmHg 93%
    05:00 +9°C° 0 mm 2 m/S 768 mmHg 91%
    06:00 +9°C° 0 mm 2 m/S 768 mmHg 90%
    07:00 +9°C° 0 mm 2 m/S 769 mmHg 88%
    08:00 +12°C° 0 mm 3 m/S 768 mmHg 79%
    09:00 +14°C° 0 mm 3 m/S 768 mmHg 70%
    10:00 +18°C° 0 mm 3 m/S 768 mmHg 60%
    11:00 +19°C° 0 mm 3 m/S 768 mmHg 57%
    12:00 +20°C° 0 mm 4 m/S 767 mmHg 53%
    13:00 +21°C° 0 mm 4 m/S 767 mmHg 49%
    14:00 +21°C° 0 mm 4 m/S 767 mmHg 50%
    15:00 +21°C° 0 mm 4 m/S 766 mmHg 50%
    16:00 +21°C° 0 mm 4 m/S 766 mmHg 51%
    17:00 +19°C° 0 mm 3 m/S 766 mmHg 59%
    18:00 +17°C° 0 mm 2 m/S 767 mmHg 67%
    19:00 +14°C° 0 mm 2 m/S 767 mmHg 75%
    20:00 +14°C° 0.1 mm 2 m/S 768 mmHg 79%
    21:00 +14°C° 0.1 mm 2 m/S 768 mmHg 83%
    22:00 +13°C° 0.1 mm 3 m/S 769 mmHg 88%
    23:00 +12°C° 0.1 mm 3 m/S 769 mmHg 89%

    23 September, Sonntag

    Zeit Temperatur Niederschläge Wind Luftdruck Luftfeuchtigkeit
    00:00 +12°C° 0.1 mm 3 m/S 769 mmHg 91%
    01:00 +11°C° 0.1 mm 4 m/S 769 mmHg 92%
    02:00 +10°C° 0 mm 3 m/S 769 mmHg 91%
    03:00 +10°C° 0 mm 3 m/S 769 mmHg 90%
    04:00 +9°C° 0 mm 3 m/S 770 mmHg 89%
    05:00 +9°C° 0 mm 3 m/S 770 mmHg 88%
    06:00 +8°C° 0 mm 3 m/S 771 mmHg 86%
    07:00 +8°C° 0 mm 3 m/S 771 mmHg 85%
    08:00 +8°C° 0 mm 4 m/S 771 mmHg 75%
    09:00 +10°C° 0 mm 4 m/S 772 mmHg 66%
    10:00 +10°C° 0 mm 5 m/S 772 mmHg 56%
    11:00 +12°C° 0 mm 5 m/S 772 mmHg 55%
    12:00 +12°C° 0 mm 5 m/S 771 mmHg 53%
    13:00 +12°C° 0 mm 5 m/S 771 mmHg 51%
    14:00 +12°C° 0 mm 5 m/S 771 mmHg 52%
    15:00 +12°C° 0 mm 5 m/S 771 mmHg 53%
    16:00 +12°C° 0 mm 4 m/S 771 mmHg 55%
    17:00 +10°C° 0 mm 4 m/S 771 mmHg 60%
    18:00 +8°C° 0 mm 4 m/S 772 mmHg 66%
    19:00 +8°C° 0 mm 3 m/S 772 mmHg 72%
    20:00 +8°C° 0 mm 3 m/S 772 mmHg 75%
    21:00 +7°C° 0 mm 3 m/S 772 mmHg 79%
    22:00 +5°C° 0 mm 3 m/S 772 mmHg 83%
    23:00 +6°C° 0 mm 2 m/S 772 mmHg 85%

    24 September, Montag

    Zeit Temperatur Niederschläge Wind Luftdruck Luftfeuchtigkeit
    00:00 +6°C° 0 mm 2 m/S 772 mmHg 86%
    01:00 +5°C° 0 mm 2 m/S 772 mmHg 88%
    02:00 +5°C° 0 mm 2 m/S 772 mmHg 89%
    03:00 +5°C° 0 mm 2 m/S 771 mmHg 90%
    04:00 +5°C° 0 mm 2 m/S 771 mmHg 91%
    05:00 +5°C° 0 mm 2 m/S 771 mmHg 90%
    06:00 +6°C° 0 mm 2 m/S 772 mmHg 88%
    07:00 +7°C° 0 mm 1 m/S 772 mmHg 87%
    08:00 +8°C° 0 mm 2 m/S 772 mmHg 77%
    09:00 +9°C° 0 mm 2 m/S 772 mmHg 68%
    10:00 +11°C° 0 mm 3 m/S 772 mmHg 58%
    11:00 +12°C° 0 mm 3 m/S 771 mmHg 55%
    12:00 +12°C° 0 mm 3 m/S 770 mmHg 52%
    13:00 +13°C° 0 mm 3 m/S 770 mmHg 50%
    14:00 +13°C° 0 mm 3 m/S 770 mmHg 51%
    15:00 +12°C° 0 mm 3 m/S 769 mmHg 52%
    16:00 +12°C° 0 mm 4 m/S 769 mmHg 53%
    17:00 +11°C° 0 mm 3 m/S 769 mmHg 59%
    18:00 +9°C° 0 mm 3 m/S 770 mmHg 65%
    19:00 +8°C° 0 mm 2 m/S 770 mmHg 71%
    20:00 +7°C° 0 mm 2 m/S 770 mmHg 75%
    21:00 +7°C° 0 mm 2 m/S 770 mmHg 79%
    22:00 +6°C° 0 mm 2 m/S 770 mmHg 84%
    23:00 +6°C° 0 mm 2 m/S 770 mmHg 86%

    25 September, Dienstag

    Zeit Temperatur Niederschläge Wind Luftdruck Luftfeuchtigkeit
    00:00 +6°C° 0 mm 1 m/S 769 mmHg 88%
    01:00 +6°C° 0 mm 1 m/S 769 mmHg 90%
    02:00 +6°C° 0 mm 1 m/S 769 mmHg 89%
    03:00 +5°C° 0 mm 2 m/S 769 mmHg 89%
    04:00 +5°C° 0 mm 2 m/S 768 mmHg 88%
    05:00 +7°C° 0 mm 1 m/S 769 mmHg 87%
    06:00 +7°C° 0 mm 1 m/S 769 mmHg 86%
    07:00 +7°C° 0 mm 1 m/S 769 mmHg 85%
    08:00 +8°C° 0 mm 2 m/S 769 mmHg 75%
    09:00 +10°C° 0 mm 2 m/S 769 mmHg 66%
    10:00 +12°C° 0 mm 3 m/S 769 mmHg 56%
    11:00 +12°C° 0 mm 3 m/S 768 mmHg 55%
    12:00 +13°C° 0 mm 3 m/S 768 mmHg 53%
    13:00 +13°C° 0 mm 3 m/S 767 mmHg 51%
    14:00 +13°C° 0 mm 3 m/S 767 mmHg 52%
    15:00 +13°C° 0 mm 3 m/S 767 mmHg 53%
    16:00 +13°C° 0 mm 4 m/S 766 mmHg 54%
    17:00 +11°C° 0 mm 3 m/S 766 mmHg 61%
    18:00 +9°C° 0 mm 3 m/S 767 mmHg 69%
    19:00 +8°C° 0 mm 2 m/S 767 mmHg 76%
    20:00 +7°C° 0 mm 2 m/S 767 mmHg 81%
    21:00 +6°C° 0 mm 2 m/S 767 mmHg 85%
    22:00 +7°C° 0 mm 1 m/S 767 mmHg 90%
    23:00 +6°C° 0 mm 1 m/S 767 mmHg 91%
    Mehr zeigen